Time,TemperatureF,DewpointF,PressureIn,WindDirection,WindDirectionDegrees,WindSpeedMPH,WindSpeedGustMPH,Humidity,HourlyPrecipIn,Conditions,Clouds,dailyrainin,SolarRadiationWatts/m^2,SoftwareType,DateUTC
2013-04-02 00:02:00,21.0,12.7,30.13,North,359,0.0,0.0,70,0.00,,,0.00,0,Wunderground v.1.15,2013-04-02 05:02:00,
2013-04-02 00:12:00,21.0,12.4,30.13,North,359,0.0,2.0,69,0.00,,,0.00,0,Wunderground v.1.15,2013-04-02 05:12:00,
2013-04-02 00:22:00,20.6,12.0,30.12,North,359,1.0,1.0,69,0.00,,,0.00,0,Wunderground v.1.15,2013-04-02 05:22:00,
2013-04-02 00:32:00,21.3,11.7,30.12,North,354,0.0,1.0,66,0.00,,,0.00,0,Wunderground v.1.15,2013-04-02 05:32:00,
2013-04-02 00:42:00,22.1,11.1,30.12,North,359,1.0,2.0,62,0.00,,,0.00,0,Wunderground v.1.15,2013-04-02 05:42:00,
2013-04-02 00:52:00,22.9,11.1,30.12,NNW,335,2.0,2.0,60,0.00,,,0.00,0,Wunderground v.1.15,2013-04-02 05:52:00,
2013-04-02 01:02:00,23.0,11.2,30.12,NNW,335,1.0,1.0,60,0.00,,,0.00,0,Wunderground v.1.15,2013-04-02 06:02:00,
2013-04-02 01:12:00,23.2,11.4,30.12,NNW,335,2.0,2.0,60,0.00,,,0.00,0,Wunderground v.1.15,2013-04-02 06:12:00,
2013-04-02 01:22:00,23.0,11.5,30.12,NNW,335,2.0,3.0,61,0.00,,,0.00,0,Wunderground v.1.15,2013-04-02 06:22:00,
2013-04-02 01:32:00,23.2,11.7,30.12,NW,323,3.0,3.0,61,0.00,,,0.00,0,Wunderground v.1.15,2013-04-02 06:32:00,
2013-04-02 01:42:00,23.3,12.2,30.12,West,275,3.0,3.0,62,0.00,,,0.00,0,Wunderground v.1.15,2013-04-02 06:42:00,
2013-04-02 01:52:00,23.2,12.1,30.12,West,275,2.0,2.0,62,0.00,,,0.00,0,Wunderground v.1.15,2013-04-02 06:52:00,
2013-04-02 02:02:00,23.0,11.9,30.12,West,275,1.0,1.0,62,0.00,,,0.00,0,Wunderground v.1.15,2013-04-02 07:02:00,
2013-04-02 02:22:00,22.9,11.4,30.12,West,275,1.0,1.0,61,0.00,,,0.00,0,Wunderground v.1.15,2013-04-02 07:22:00,
2013-04-02 02:32:00,23.2,10.6,30.12,West,275,2.0,2.0,58,0.00,,,0.00,0,Wunderground v.1.15,2013-04-02 07:32:00,
2013-04-02 02:52:00,24.7,9.5,30.12,NW,306,4.0,6.0,52,0.00,,,0.00,0,Wunderground v.1.15,2013-04-02 07:52:00,
2013-04-02 03:02:00,25.1,9.5,30.12,WNW,295,5.0,7.0,51,0.00,,,0.00,0,Wunderground v.1.15,2013-04-02 08:02:00,
2013-04-02 03:12:00,25.1,9.5,30.12,WNW,288,4.0,4.0,51,0.00,,,0.00,0,Wunderground v.1.15,2013-04-02 08:12:00,
2013-04-02 03:22:00,24.7,10.0,30.12,WNW,288,3.0,3.0,53,0.00,,,0.00,0,Wunderground v.1.15,2013-04-02 08:22:00,
2013-04-02 03:32:00,24.4,9.7,30.12,WNW,294,3.0,3.0,53,0.00,,,0.00,0,Wunderground v.1.15,2013-04-02 08:32:00,
2013-04-02 03:42:00,24.2,9.5,30.12,NW,313,3.0,4.0,53,0.00,,,0.00,0,Wunderground v.1.15,2013-04-02 08:42:00,
2013-04-02 03:52:00,24.1,9.4,30.12,NW,316,3.0,3.0,53,0.00,,,0.00,0,Wunderground v.1.15,2013-04-02 08:52:00,
2013-04-02 04:02:00,24.1,9.4,30.12,NW,319,3.0,4.0,53,0.00,,,0.00,0,Wunderground v.1.15,2013-04-02 09:02:00,
2013-04-02 04:12:00,23.9,9.6,30.12,NW,315,4.0,4.0,54,0.00,,,0.00,0,Wunderground v.1.15,2013-04-02 09:12:00,
2013-04-02 04:22:00,23.6,9.8,30.12,NW,320,4.0,4.0,55,0.00,,,0.00,0,Wunderground v.1.15,2013-04-02 09:22:00,
2013-04-02 04:32:00,23.3,10.3,30.13,NW,320,3.0,3.0,57,0.00,,,0.00,0,Wunderground v.1.15,2013-04-02 09:32:00,
2013-04-02 04:42:00,23.2,10.2,30.13,NW,311,4.0,4.0,57,0.00,,,0.00,0,Wunderground v.1.15,2013-04-02 09:42:00,
2013-04-02 04:52:00,22.9,9.9,30.13,NW,315,3.0,5.0,57,0.00,,,0.00,0,Wunderground v.1.15,2013-04-02 09:52:00,
2013-04-02 05:02:00,22.9,9.9,30.14,NW,313,3.0,3.0,57,0.00,,,0.00,0,Wunderground v.1.15,2013-04-02 10:02:00,
2013-04-02 05:12:00,22.7,9.7,30.14,NW,309,4.0,4.0,57,0.00,,,0.00,0,Wunderground v.1.15,2013-04-02 10:12:00,
2013-04-02 05:22:00,22.5,9.5,30.14,NW,309,3.0,3.0,57,0.00,,,0.00,0,Wunderground v.1.15,2013-04-02 10:22:00,
2013-04-02 05:32:00,22.4,9.8,30.15,NW,309,3.0,4.0,58,0.00,,,0.00,0,Wunderground v.1.15,2013-04-02 10:32:00,
2013-04-02 05:42:00,22.2,10.0,30.15,NW,318,3.0,6.0,59,0.00,,,0.00,0,Wunderground v.1.15,2013-04-02 10:42:00,
2013-04-02 05:52:00,22.1,9.9,30.15,NW,316,4.0,5.0,59,0.00,,,0.00,0,Wunderground v.1.15,2013-04-02 10:52:00,
2013-04-02 06:02:00,21.9,10.1,30.15,NW,315,3.0,5.0,60,0.00,,,0.00,0,Wunderground v.1.15,2013-04-02 11:02:00,
2013-04-02 06:12:00,21.8,10.0,30.15,NW,311,3.0,3.0,60,0.00,,,0.00,0,Wunderground v.1.15,2013-04-02 11:12:00,
2013-04-02 06:22:00,21.6,10.2,30.16,NW,308,3.0,3.0,61,0.00,,,0.00,0,Wunderground v.1.15,2013-04-02 11:22:00,
2013-04-02 06:32:00,21.6,10.2,30.16,NW,308,5.0,5.0,61,0.00,,,0.00,0,Wunderground v.1.15,2013-04-02 11:32:00,
2013-04-02 06:42:00,21.4,10.0,30.16,NW,316,3.0,3.0,61,0.00,,,0.00,7,Wunderground v.1.15,2013-04-02 11:42:00,
2013-04-02 06:52:00,21.6,10.2,30.16,NW,316,3.0,7.0,61,0.00,,,0.00,14,Wunderground v.1.15,2013-04-02 11:52:00,
2013-04-02 07:02:00,21.6,10.2,30.17,NW,320,3.0,3.0,61,0.00,,,0.00,19,Wunderground v.1.15,2013-04-02 12:02:00,
2013-04-02 07:12:00,22.1,10.3,30.17,NW,320,3.0,3.0,60,0.00,,,0.00,88,Wunderground v.1.15,2013-04-02 12:12:00,
2013-04-02 07:22:00,22.7,10.5,30.18,NW,316,3.0,3.0,59,0.00,,,0.00,118,Wunderground v.1.15,2013-04-02 12:22:00,
2013-04-02 07:32:00,23.3,10.7,30.18,NNW,333,4.0,4.0,58,0.00,,,0.00,148,Wunderground v.1.15,2013-04-02 12:32:00,
2013-04-02 07:42:00,23.6,11.0,30.18,NW,322,4.0,5.0,58,0.00,,,0.00,178,Wunderground v.1.15,2013-04-02 12:42:00,
2013-04-02 07:52:00,24.1,11.4,30.19,NNW,342,4.0,4.0,58,0.00,,,0.00,206,Wunderground v.1.15,2013-04-02 12:52:00,
2013-04-02 08:02:00,24.5,11.4,30.19,NW,325,5.0,9.0,57,0.00,,,0.00,238,Wunderground v.1.15,2013-04-02 13:02:00,
2013-04-02 08:12:00,25.1,11.6,30.19,WNW,292,5.0,7.0,56,0.00,,,0.00,269,Wunderground v.1.15,2013-04-02 13:12:00,
2013-04-02 08:22:00,25.3,12.2,30.19,NW,320,6.0,6.0,57,0.00,,,0.00,299,Wunderground v.1.15,2013-04-02 13:22:00,
2013-04-02 08:32:00,25.6,12.5,30.20,NNW,340,6.0,6.0,57,0.00,,,0.00,329,Wunderground v.1.15,2013-04-02 13:32:00,
2013-04-02 08:42:00,25.8,12.2,30.20,NNW,343,6.0,8.0,56,0.00,,,0.00,362,Wunderground v.1.15,2013-04-02 13:42:00,
2013-04-02 08:52:00,25.8,12.2,30.20,WNW,288,7.0,7.0,56,0.00,,,0.00,389,Wunderground v.1.15,2013-04-02 13:52:00,
2013-04-02 09:02:00,26.4,12.8,30.20,NW,320,7.0,7.0,56,0.00,,,0.00,419,Wunderground v.1.15,2013-04-02 14:02:00,
2013-04-02 09:12:00,27.3,13.7,30.20,NW,313,6.0,8.0,56,0.00,,,0.00,445,Wunderground v.1.15,2013-04-02 14:12:00,
2013-04-02 09:22:00,28.1,13.1,30.20,WNW,295,4.0,4.0,53,0.00,,,0.00,472,Wunderground v.1.15,2013-04-02 14:22:00,
2013-04-02 09:32:00,28.7,14.1,30.20,NNW,336,5.0,5.0,54,0.00,,,0.00,498,Wunderground v.1.15,2013-04-02 14:32:00,
2013-04-02 09:42:00,29.3,12.5,30.20,NW,323,6.0,6.0,49,0.00,,,0.00,526,Wunderground v.1.15,2013-04-02 14:42:00,
2013-04-02 09:52:00,29.7,13.3,30.20,NW,316,6.0,6.0,50,0.00,,,0.00,549,Wunderground v.1.15,2013-04-02 14:52:00,
2013-04-02 10:02:00,30.0,12.2,30.20,WNW,295,6.0,8.0,47,0.00,,,0.00,577,Wunderground v.1.15,2013-04-02 15:02:00,
2013-04-02 10:12:00,30.1,12.3,30.20,NNW,332,7.0,7.0,47,0.00,,,0.00,596,Wunderground v.1.15,2013-04-02 15:12:00,
2013-04-02 10:22:00,30.6,13.7,30.21,NNW,339,7.0,7.0,49,0.00,,,0.00,614,Wunderground v.1.15,2013-04-02 15:22:00,
2013-04-02 10:32:00,31.0,13.1,30.21,NW,304,7.0,7.0,47,0.00,,,0.00,637,Wunderground v.1.15,2013-04-02 15:32:00,
2013-04-02 10:42:00,31.2,13.8,30.21,NW,325,6.0,10.0,48,0.00,,,0.00,655,Wunderground v.1.15,2013-04-02 15:42:00,
2013-04-02 10:52:00,31.5,12.1,30.21,NW,315,6.0,10.0,44,0.00,,,0.00,672,Wunderground v.1.15,2013-04-02 15:52:00,
2013-04-02 11:02:00,31.8,11.3,30.21,WNW,288,7.0,9.0,42,0.00,,,0.00,691,Wunderground v.1.15,2013-04-02 16:02:00,
2013-04-02 11:12:00,31.8,11.8,30.21,NNW,339,7.0,7.0,43,0.00,,,0.00,709,Wunderground v.1.15,2013-04-02 16:12:00,
2013-04-02 11:22:00,31.8,12.3,30.21,West,281,6.0,6.0,44,0.00,,,0.00,732,Wunderground v.1.15,2013-04-02 16:22:00,
2013-04-02 11:32:00,32.2,12.2,30.21,NW,322,8.0,11.0,43,0.00,,,0.00,746,Wunderground v.1.15,2013-04-02 16:32:00,
2013-04-02 11:42:00,32.5,11.9,30.21,WSW,253,8.0,9.0,42,0.00,,,0.00,767,Wunderground v.1.15,2013-04-02 16:42:00,
2013-04-02 11:52:00,32.4,12.4,30.21,WNW,288,8.0,8.0,43,0.00,,,0.00,774,Wunderground v.1.15,2013-04-02 16:52:00,
2013-04-02 12:12:00,33.1,12.5,30.21,NW,323,7.0,7.0,42,0.00,,,0.00,846,Wunderground v.1.15,2013-04-02 17:12:00,
2013-04-02 12:22:00,32.7,12.1,30.20,WNW,294,8.0,13.0,42,0.00,,,0.00,933,Wunderground v.1.15,2013-04-02 17:22:00,
2013-04-02 12:32:00,32.9,11.7,30.20,NW,322,8.0,8.0,41,0.00,,,0.00,917,Wunderground v.1.15,2013-04-02 17:32:00,
2013-04-02 12:42:00,33.7,12.5,30.20,West,278,8.0,8.0,41,0.00,,,0.00,823,Wunderground v.1.15,2013-04-02 17:42:00,
2013-04-02 12:52:00,34.1,12.3,30.20,WNW,296,8.0,11.0,40,0.00,,,0.00,927,Wunderground v.1.15,2013-04-02 17:52:00,
2013-04-02 13:02:00,33.5,11.7,30.20,NW,316,8.0,8.0,40,0.00,,,0.00,813,Wunderground v.1.15,2013-04-02 18:02:00,
2013-04-02 13:12:00,34.4,12.0,30.20,West,281,9.0,9.0,39,0.00,,,0.00,913,Wunderground v.1.15,2013-04-02 18:12:00,
2013-04-02 13:22:00,34.7,11.0,30.20,NW,318,9.0,9.0,37,0.00,,,0.00,980,Wunderground v.1.15,2013-04-02 18:22:00,
2013-04-02 13:32:00,34.4,12.0,30.19,WNW,284,8.0,8.0,39,0.00,,,0.00,362,Wunderground v.1.15,2013-04-02 18:32:00,
2013-04-02 13:42:00,35.0,11.9,30.19,North,359,8.0,8.0,38,0.00,,,0.00,588,Wunderground v.1.15,2013-04-02 18:42:00,
2013-04-02 13:52:00,34.4,12.0,30.19,NNW,340,7.0,7.0,39,0.00,,,0.00,787,Wunderground v.1.15,2013-04-02 18:52:00,
2013-04-02 14:02:00,35.6,12.5,30.19,NW,326,6.0,7.0,38,0.00,,,0.00,359,Wunderground v.1.15,2013-04-02 19:02:00,
2013-04-02 14:22:00,35.0,11.3,30.19,NW,316,8.0,11.0,37,0.00,,,0.00,484,Wunderground v.1.15,2013-04-02 19:22:00,
2013-04-02 14:32:00,35.6,10.6,30.19,WNW,302,10.0,11.0,35,0.00,,,0.00,753,Wunderground v.1.15,2013-04-02 19:32:00,
2013-04-02 14:52:00,35.8,11.4,30.18,WSW,253,8.0,8.0,36,0.00,,,0.00,750,Wunderground v.1.15,2013-04-02 19:52:00,
2013-04-02 15:02:00,36.6,10.8,30.18,NW,320,8.0,11.0,34,0.00,,,0.00,700,Wunderground v.1.15,2013-04-02 20:02:00,
2013-04-02 15:12:00,35.6,9.3,30.18,WSW,258,10.0,10.0,33,0.00,,,0.00,649,Wunderground v.1.15,2013-04-02 20:12:00,
2013-04-02 15:22:00,36.6,10.8,30.18,WNW,298,5.0,7.0,34,0.00,,,0.00,558,Wunderground v.1.15,2013-04-02 20:22:00,
2013-04-02 15:32:00,36.5,10.7,30.18,West,278,7.0,7.0,34,0.00,,,0.00,660,Wunderground v.1.15,2013-04-02 20:32:00,
2013-04-02 15:42:00,36.3,10.6,30.18,NW,315,8.0,8.0,34,0.00,,,0.00,628,Wunderground v.1.15,2013-04-02 20:42:00,
2013-04-02 15:52:00,36.9,10.4,30.18,NW,318,7.0,7.0,33,0.00,,,0.00,449,Wunderground v.1.15,2013-04-02 20:52:00,
2013-04-02 16:02:00,36.9,11.8,30.18,North,356,6.0,6.0,35,0.00,,,0.00,452,Wunderground v.1.15,2013-04-02 21:02:00,
2013-04-02 16:12:00,36.2,9.1,30.18,NNW,336,7.0,7.0,32,0.00,,,0.00,246,Wunderground v.1.15,2013-04-02 21:12:00,
2013-04-02 16:22:00,36.6,10.8,30.19,NNW,347,6.0,6.0,34,0.00,,,0.00,396,Wunderground v.1.15,2013-04-02 21:22:00,
2013-04-02 16:32:00,36.2,11.1,30.19,NW,313,8.0,8.0,35,0.00,,,0.00,253,Wunderground v.1.15,2013-04-02 21:32:00,
2013-04-02 16:42:00,36.3,11.2,30.19,North,353,6.0,6.0,35,0.00,,,0.00,204,Wunderground v.1.15,2013-04-02 21:42:00,
2013-04-02 16:52:00,35.9,12.1,30.19,North,353,6.0,6.0,37,0.00,,,0.00,202,Wunderground v.1.15,2013-04-02 21:52:00,
2013-04-02 17:02:00,35.8,12.6,30.20,North,350,5.0,5.0,38,0.00,,,0.00,155,Wunderground v.1.15,2013-04-02 22:02:00,
2013-04-02 17:12:00,35.9,12.1,30.20,NW,320,5.0,5.0,37,0.00,,,0.00,194,Wunderground v.1.15,2013-04-02 22:12:00,
2013-04-02 17:22:00,36.8,11.7,30.20,NNW,346,5.0,6.0,35,0.00,,,0.00,285,Wunderground v.1.15,2013-04-02 22:22:00,
2013-04-02 17:32:00,36.3,13.1,30.20,NNW,339,5.0,5.0,38,0.00,,,0.00,192,Wunderground v.1.15,2013-04-02 22:32:00,
2013-04-02 17:42:00,36.5,14.4,30.20,North,353,4.0,4.0,40,0.00,,,0.00,287,Wunderground v.1.15,2013-04-02 22:42:00,
2013-04-02 18:02:00,37.3,12.1,30.21,North,1,4.0,6.0,35,0.00,,,0.00,222,Wunderground v.1.15,2013-04-02 23:02:00,
2013-04-02 18:12:00,36.6,12.1,30.21,North,352,6.0,6.0,36,0.00,,,0.00,72,Wunderground v.1.15,2013-04-02 23:12:00,
2013-04-02 18:22:00,36.5,12.0,30.22,North,350,3.0,3.0,36,0.00,,,0.00,118,Wunderground v.1.15,2013-04-02 23:22:00,
2013-04-02 18:32:00,36.2,11.1,30.22,North,350,4.0,5.0,35,0.00,,,0.00,116,Wunderground v.1.15,2013-04-02 23:32:00,
2013-04-02 18:42:00,36.0,11.0,30.22,North,350,4.0,5.0,35,0.00,,,0.00,65,Wunderground v.1.15,2013-04-02 23:42:00,
2013-04-02 18:52:00,35.9,11.5,30.22,North,352,3.0,3.0,36,0.00,,,0.00,49,Wunderground v.1.15,2013-04-02 23:52:00,
2013-04-02 19:02:00,35.5,12.4,30.22,North,352,3.0,4.0,38,0.00,,,0.00,26,Wunderground v.1.15,2013-04-03 00:02:00,
2013-04-02 19:12:00,34.9,12.4,30.22,North,350,3.0,3.0,39,0.00,,,0.00,9,Wunderground v.1.15,2013-04-03 00:12:00,
2013-04-02 19:22:00,34.1,12.3,30.22,North,350,2.0,2.0,40,0.00,,,0.00,0,Wunderground v.1.15,2013-04-03 00:22:00,
2013-04-02 19:32:00,33.5,11.7,30.22,North,352,2.0,2.0,40,0.00,,,0.00,0,Wunderground v.1.15,2013-04-03 00:32:00,
2013-04-02 19:42:00,33.1,11.9,30.22,North,350,1.0,3.0,41,0.00,,,0.00,0,Wunderground v.1.15,2013-04-03 00:42:00,
2013-04-02 20:02:00,32.1,13.1,30.24,North,350,1.0,1.0,45,0.00,,,0.00,0,Wunderground v.1.15,2013-04-03 01:02:00,
2013-04-02 20:12:00,31.5,14.0,30.24,North,352,0.0,0.0,48,0.00,,,0.00,0,Wunderground v.1.15,2013-04-03 01:12:00,
2013-04-02 20:22:00,31.0,13.6,30.24,North,352,0.0,0.0,48,0.00,,,0.00,0,Wunderground v.1.15,2013-04-03 01:22:00,
2013-04-02 20:32:00,30.4,14.0,30.25,North,352,1.0,1.0,50,0.00,,,0.00,0,Wunderground v.1.15,2013-04-03 01:32:00,
2013-04-02 20:42:00,30.1,13.7,30.25,North,352,1.0,1.0,50,0.00,,,0.00,0,Wunderground v.1.15,2013-04-03 01:42:00,
2013-04-02 21:02:00,30.1,11.8,30.26,North,359,4.0,4.0,46,0.00,,,0.00,0,Wunderground v.1.15,2013-04-03 02:02:00,
2013-04-02 21:12:00,30.1,10.8,30.26,North,0,3.0,5.0,44,0.00,,,0.00,0,Wunderground v.1.15,2013-04-03 02:12:00,
2013-04-02 21:22:00,30.3,9.9,30.26,North,0,4.0,5.0,42,0.00,,,0.00,0,Wunderground v.1.15,2013-04-03 02:22:00,
2013-04-02 21:32:00,30.4,9.5,30.27,North,4,6.0,6.0,41,0.00,,,0.00,0,Wunderground v.1.15,2013-04-03 02:32:00,
2013-04-02 21:42:00,30.1,9.7,30.27,NNE,31,4.0,6.0,42,0.00,,,0.00,0,Wunderground v.1.15,2013-04-03 02:42:00,
2013-04-02 22:02:00,29.3,11.1,30.28,NNE,31,2.0,2.0,46,0.00,,,0.00,0,Wunderground v.1.15,2013-04-03 03:02:00,
2013-04-02 22:12:00,28.7,12.4,30.28,NNE,31,3.0,5.0,50,0.00,,,0.00,0,Wunderground v.1.15,2013-04-03 03:12:00,
2013-04-02 22:22:00,28.4,13.0,30.29,NNE,31,2.0,2.0,52,0.00,,,0.00,0,Wunderground v.1.15,2013-04-03 03:22:00,
2013-04-02 22:32:00,27.9,13.4,30.29,NNE,31,2.0,2.0,54,0.00,,,0.00,0,Wunderground v.1.15,2013-04-03 03:32:00,
2013-04-02 22:42:00,27.6,13.5,30.29,NNE,31,1.0,1.0,55,0.00,,,0.00,0,Wunderground v.1.15,2013-04-03 03:42:00,
2013-04-02 22:52:00,27.3,13.7,30.29,NNE,31,0.0,0.0,56,0.00,,,0.00,0,Wunderground v.1.15,2013-04-03 03:52:00,
2013-04-02 23:02:00,27.0,13.8,30.30,NNE,31,0.0,0.0,57,0.00,,,0.00,0,Wunderground v.1.15,2013-04-03 04:02:00,
2013-04-02 23:12:00,26.7,13.9,30.30,NNE,31,0.0,0.0,58,0.00,,,0.00,0,Wunderground v.1.15,2013-04-03 04:12:00,
2013-04-02 23:22:00,26.0,14.0,30.30,NNE,31,0.0,0.0,60,0.00,,,0.00,0,Wunderground v.1.15,2013-04-03 04:22:00,
2013-04-02 23:32:00,25.3,13.7,30.30,NNE,31,0.0,0.0,61,0.00,,,0.00,0,Wunderground v.1.15,2013-04-03 04:32:00,
2013-04-02 23:42:00,24.8,13.6,30.30,NNE,31,0.0,0.0,62,0.00,,,0.00,0,Wunderground v.1.15,2013-04-03 04:42:00,
2013-04-02 23:52:00,24.4,13.6,30.30,NNE,31,0.0,0.0,63,0.00,,,0.00,0,Wunderground v.1.15,2013-04-03 04:52:00,